Location: ????????
(54.9045°N, 39.1041°E)
Time: 02:12:10
(UTC+00:00)

Cosmos 921 Rocket - Pass Details

Date: 14 April 2024
Orbit: 567 x 626 km, 75.8° (Epoch: 25 May)

Event Time Altitude Azimuth Distance (km) Brightness Sun altitude
Rises 01:14:04 0° 185° (S) 2,792 6.1 -9.7°
Reaches altitude 10° 01:16:18 10° 179° (S) 1,906 5.3 -9.4°
Maximum altitude 01:20:22 47° 106° (ESE) 798 4.0 -8.9°
Drops below altitude 10° 01:24:32 10° 33° (NNE) 1,956 6.8 -8.4°
Sets 01:26:51 0° 28° (NNE) 2,874 7.6 -8.1°
